Time,TemperatureF,DewpointF,PressureIn,WindDirection,WindDirectionDegrees,WindSpeedMPH,WindSpeedGustMPH,Humidity,HourlyPrecipIn,Conditions,Clouds,dailyrainin,SoftwareType,DateUTC
2013-08-17 00:01:00,57.2,30.5,28.23,ESE,114,0.0,0.0,36,0.00,,---,0.04,VWS V14.01,2013-08-17 04:01:00,
2013-08-17 00:02:00,57.2,30.5,28.23,ESE,114,0.0,0.0,36,0.00,,---,0.04,VWS V14.01,2013-08-17 04:02:00,
2013-08-17 00:03:00,57.2,30.5,28.23,ESE,114,0.0,0.0,36,0.00,,---,0.00,VWS V14.01,2013-08-17 04:03:00,
2013-08-17 00:06:00,57.0,31.0,28.23,ESE,114,0.0,0.0,37,0.00,,---,0.00,VWS V14.01,2013-08-17 04:06:00,
2013-08-17 00:12:00,57.0,31.0,28.23,ESE,114,0.0,0.0,37,0.00,,---,0.00,VWS V14.01,2013-08-17 04:12:00,
2013-08-17 00:17:00,56.8,30.9,28.23,ESE,114,0.0,0.0,37,0.00,,---,0.00,VWS V14.01,2013-08-17 04:17:00,
2013-08-17 00:23:00,56.8,30.9,28.23,ESE,114,0.0,0.0,37,0.00,,---,0.00,VWS V14.01,2013-08-17 04:23:00,
2013-08-17 00:28:00,56.8,30.9,28.26,ESE,114,0.0,0.0,37,0.00,,---,0.00,VWS V14.01,2013-08-17 04:28:00,
2013-08-17 00:33:00,56.5,30.5,28.26,ESE,114,0.0,0.0,37,0.00,,---,0.00,VWS V14.01,2013-08-17 04:33:00,
2013-08-17 01:05:00,55.9,30.1,28.26,ESE,114,0.0,0.0,37,0.00,,---,0.00,VWS V14.01,2013-08-17 05:05:00,
2013-08-17 01:11:00,55.8,29.9,28.26,ESE,114,0.0,0.0,37,0.00,,---,0.00,VWS V14.01,2013-08-17 05:11:00,
2013-08-17 01:16:00,55.8,29.9,28.26,ESE,114,0.0,0.0,37,0.00,,---,0.00,VWS V14.01,2013-08-17 05:16:00,
2013-08-17 01:22:00,55.6,29.7,28.26,ESE,114,0.0,0.0,37,0.00,,---,0.00,VWS V14.01,2013-08-17 05:22:00,
2013-08-17 01:27:00,55.4,29.6,28.26,ESE,114,0.0,0.0,37,0.00,,---,0.00,VWS V14.01,2013-08-17 05:27:00,
2013-08-17 01:33:00,55.2,30.1,28.26,ESE,114,0.0,0.0,38,0.00,,---,0.00,VWS V14.01,2013-08-17 05:33:00,
2013-08-17 01:56:00,54.3,29.3,28.26,ESE,114,0.0,0.0,38,0.00,,---,0.00,VWS V14.01,2013-08-17 05:56:00,
2013-08-17 02:02:00,54.1,29.1,28.26,ESE,114,0.0,0.0,38,0.00,,---,0.00,VWS V14.01,2013-08-17 06:02:00,
2013-08-17 02:07:00,54.1,29.1,28.26,ESE,114,0.0,0.0,38,0.00,,---,0.00,VWS V14.01,2013-08-17 06:07:00,
2013-08-17 02:13:00,54.3,29.3,28.26,ESE,114,0.0,0.0,38,0.00,,---,0.00,VWS V14.01,2013-08-17 06:13:00,
2013-08-17 02:18:00,54.3,29.3,28.26,ESE,114,0.0,0.0,38,0.00,,---,0.00,VWS V14.01,2013-08-17 06:18:00,
2013-08-17 02:24:00,54.3,29.3,28.26,ESE,114,0.0,0.0,38,0.00,,---,0.00,VWS V14.01,2013-08-17 06:24:00,
2013-08-17 02:29:00,54.1,29.1,28.26,ESE,114,0.0,0.0,38,0.00,,---,0.00,VWS V14.01,2013-08-17 06:29:00,
2013-08-17 03:05:00,53.4,29.1,28.26,ESE,114,0.0,0.0,39,0.00,,---,0.00,VWS V14.01,2013-08-17 07:05:00,
2013-08-17 03:10:00,53.2,28.9,28.26,ESE,114,0.0,0.0,39,0.00,,---,0.00,VWS V14.01,2013-08-17 07:10:00,
2013-08-17 03:16:00,53.2,28.9,28.26,ESE,114,0.0,0.0,39,0.00,,---,0.00,VWS V14.01,2013-08-17 07:16:00,
2013-08-17 03:22:00,53.1,28.8,28.26,ESE,114,0.0,0.0,39,0.00,,---,0.00,VWS V14.01,2013-08-17 07:22:00,
2013-08-17 03:28:00,53.1,28.8,28.26,ESE,114,0.0,0.0,39,0.00,,---,0.00,VWS V14.01,2013-08-17 07:28:00,
2013-08-17 03:56:00,52.9,28.6,28.26,ESE,114,0.0,0.0,39,0.00,,---,0.00,VWS V14.01,2013-08-17 07:56:00,
2013-08-17 04:02:00,52.7,28.5,28.26,ESE,114,0.0,0.0,39,0.00,,---,0.00,VWS V14.01,2013-08-17 08:02:00,
2013-08-17 04:07:00,52.5,28.3,28.26,ESE,114,0.0,0.0,39,0.00,,---,0.00,VWS V14.01,2013-08-17 08:07:00,
2013-08-17 04:13:00,52.5,28.9,28.26,ESE,114,0.0,0.0,40,0.00,,---,0.00,VWS V14.01,2013-08-17 08:13:00,
2013-08-17 04:19:00,52.2,28.6,28.26,ESE,114,0.0,0.0,40,0.00,,---,0.00,VWS V14.01,2013-08-17 08:19:00,
2013-08-17 04:24:00,52.2,28.6,28.26,ESE,114,0.0,0.0,40,0.00,,---,0.00,VWS V14.01,2013-08-17 08:24:00,
2013-08-17 04:30:00,52.0,28.4,28.26,ESE,114,0.0,0.0,40,0.00,,---,0.00,VWS V14.01,2013-08-17 08:30:00,
2013-08-17 05:04:00,52.2,29.2,28.26,ESE,114,0.0,0.0,41,0.00,,---,0.00,VWS V14.01,2013-08-17 09:04:00,
2013-08-17 05:10:00,52.2,29.2,28.26,ESE,114,0.0,0.0,41,0.00,,---,0.00,VWS V14.01,2013-08-17 09:10:00,
2013-08-17 05:16:00,52.2,29.2,28.26,ESE,114,0.0,0.0,41,0.00,,---,0.00,VWS V14.01,2013-08-17 09:16:00,
2013-08-17 05:22:00,52.2,28.6,28.26,ESE,114,0.0,0.0,40,0.00,,---,0.00,VWS V14.01,2013-08-17 09:22:00,
2013-08-17 05:27:00,52.0,28.4,28.26,ESE,114,0.0,0.0,40,0.00,,---,0.00,VWS V14.01,2013-08-17 09:27:00,
2013-08-17 05:33:00,52.0,29.0,28.26,ESE,114,0.0,0.0,41,0.00,,---,0.00,VWS V14.01,2013-08-17 09:33:00,
2013-08-17 05:56:00,51.8,28.9,28.29,ESE,114,0.0,0.0,41,0.00,,---,0.00,VWS V14.01,2013-08-17 09:56:00,
2013-08-17 06:02:00,51.4,29.1,28.29,ESE,114,0.0,0.0,42,0.00,,---,0.00,VWS V14.01,2013-08-17 10:02:00,
2013-08-17 06:08:00,51.3,29.0,28.29,ESE,114,0.0,0.0,42,0.00,,---,0.00,VWS V14.01,2013-08-17 10:08:00,
2013-08-17 06:13:00,51.3,28.4,28.29,ESE,114,0.0,0.0,41,0.00,,---,0.00,VWS V14.01,2013-08-17 10:13:00,
2013-08-17 06:18:00,51.1,28.8,28.29,ESE,114,0.0,0.0,42,0.00,,---,0.00,VWS V14.01,2013-08-17 10:18:00,
2013-08-17 06:23:00,51.1,28.8,28.29,ESE,114,0.0,0.0,42,0.00,,---,0.00,VWS V14.01,2013-08-17 10:23:00,
2013-08-17 06:29:00,50.9,28.6,28.29,ESE,114,0.0,0.0,42,0.00,,---,0.00,VWS V14.01,2013-08-17 10:29:00,
2013-08-17 07:22:00,53.1,31.2,28.29,ESE,114,0.0,0.0,43,0.00,,---,0.00,VWS V14.01,2013-08-17 11:22:00,
2013-08-17 07:27:00,53.2,32.5,28.29,ESE,114,0.0,0.0,45,0.00,,---,0.00,VWS V14.01,2013-08-17 11:27:00,
2013-08-17 07:32:00,53.6,32.8,28.29,ESE,114,0.0,0.0,45,0.00,,---,0.00,VWS V14.01,2013-08-17 11:32:00,
2013-08-17 07:56:00,55.2,34.3,28.29,ESE,114,0.0,0.0,45,0.00,,---,0.00,VWS V14.01,2013-08-17 11:56:00,
2013-08-17 08:02:00,55.8,34.2,28.29,ESE,114,0.0,0.0,44,0.00,,---,0.00,VWS V14.01,2013-08-17 12:02:00,
2013-08-17 08:06:00,56.1,34.5,28.29,ESE,114,0.0,0.0,44,0.00,,---,0.00,VWS V14.01,2013-08-17 12:06:00,
2013-08-17 08:11:00,56.7,35.0,28.29,ESE,114,0.0,0.0,44,0.00,,---,0.00,VWS V14.01,2013-08-17 12:11:00,
2013-08-17 08:17:00,57.2,35.5,28.29,ESE,114,0.0,0.0,44,0.00,,---,0.00,VWS V14.01,2013-08-17 12:17:00,
2013-08-17 08:22:00,57.6,35.8,28.29,ESE,114,0.0,0.0,44,0.00,,---,0.00,VWS V14.01,2013-08-17 12:22:00,
2013-08-17 08:28:00,58.3,36.5,28.29,ESE,114,0.0,0.0,44,0.00,,---,0.00,VWS V14.01,2013-08-17 12:28:00,
2013-08-17 08:33:00,58.8,37.0,28.29,ESE,114,0.0,0.0,44,0.00,,---,0.00,VWS V14.01,2013-08-17 12:33:00,
2013-08-17 09:04:00,62.4,35.1,28.29,ESE,114,0.0,0.0,36,0.00,,---,0.00,VWS V14.01,2013-08-17 13:04:00,
2013-08-17 09:10:00,63.3,35.9,28.29,SSW,199,0.0,0.0,36,0.00,,---,0.00,VWS V14.01,2013-08-17 13:10:00,
2013-08-17 09:16:00,63.9,35.7,28.29,SW,214,0.0,0.0,35,0.00,,---,0.00,VWS V14.01,2013-08-17 13:16:00,
2013-08-17 09:22:00,64.4,35.5,28.29,SW,229,0.0,0.0,34,0.00,,---,0.00,VWS V14.01,2013-08-17 13:22:00,
2013-08-17 09:28:00,65.1,36.1,28.29,SSE,147,0.0,0.0,34,0.00,,---,0.00,VWS V14.01,2013-08-17 13:28:00,
2013-08-17 09:33:00,65.7,36.6,28.29,SSE,148,0.0,0.0,34,0.00,,---,0.00,VWS V14.01,2013-08-17 13:33:00,
2013-08-17 09:56:00,68.7,38.5,28.29,SSE,149,0.0,0.0,33,0.00,,---,0.00,VWS V14.01,2013-08-17 13:56:00,
2013-08-17 10:02:00,69.4,39.1,28.29,SSE,149,0.0,0.0,33,0.00,,---,0.00,VWS V14.01,2013-08-17 14:02:00,
2013-08-17 10:07:00,69.8,38.6,28.29,SSE,149,0.0,0.0,32,0.00,,---,0.00,VWS V14.01,2013-08-17 14:07:00,
2013-08-17 10:13:00,70.5,39.3,28.29,SSE,149,0.0,0.0,32,0.00,,---,0.00,VWS V14.01,2013-08-17 14:13:00,
2013-08-17 10:18:00,70.9,39.6,28.29,SSE,149,0.0,0.0,32,0.00,,---,0.00,VWS V14.01,2013-08-17 14:18:00,
2013-08-17 10:24:00,71.2,39.9,28.29,East,99,0.0,0.0,32,0.00,,---,0.00,VWS V14.01,2013-08-17 14:24:00,
2013-08-17 10:30:00,71.8,40.4,28.29,ESE,103,0.0,3.1,32,0.00,,---,0.00,VWS V14.01,2013-08-17 14:30:00,
2013-08-17 11:04:00,74.8,42.2,28.29,East,99,0.0,2.7,31,0.00,,---,0.00,VWS V14.01,2013-08-17 15:04:00,
2013-08-17 11:10:00,75.0,42.4,28.29,ESE,115,0.0,0.0,31,0.00,,---,0.00,VWS V14.01,2013-08-17 15:10:00,
2013-08-17 11:16:00,75.2,42.5,28.29,South,179,0.0,0.0,31,0.00,,---,0.00,VWS V14.01,2013-08-17 15:16:00,
2013-08-17 11:21:00,75.4,42.7,28.29,ESE,114,0.0,0.0,31,0.00,,---,0.00,VWS V14.01,2013-08-17 15:21:00,
2013-08-17 11:26:00,75.6,42.8,28.29,ESE,114,0.0,0.0,31,0.00,,---,0.00,VWS V14.01,2013-08-17 15:26:00,
2013-08-17 11:31:00,75.6,42.8,28.29,SSE,156,0.0,0.0,31,0.00,,---,0.00,VWS V14.01,2013-08-17 15:31:00,
2013-08-17 11:56:00,77.2,44.2,28.29,ESE,102,2.2,3.6,31,0.00,,---,0.00,VWS V14.01,2013-08-17 15:56:00,
2013-08-17 12:02:00,77.7,44.7,28.29,ESE,113,0.0,0.0,31,0.00,,---,0.00,VWS V14.01,2013-08-17 16:02:00,
2013-08-17 12:08:00,78.3,45.2,28.29,SSE,156,0.0,0.0,31,0.00,,---,0.00,VWS V14.01,2013-08-17 16:08:00,
2013-08-17 12:13:00,77.9,44.9,28.29,SE,136,0.0,0.0,31,0.00,,---,0.00,VWS V14.01,2013-08-17 16:13:00,
2013-08-17 12:19:00,77.4,44.4,28.29,ESE,105,2.7,2.7,31,0.00,,---,0.00,VWS V14.01,2013-08-17 16:19:00,
2013-08-17 12:24:00,77.2,44.2,28.29,East,97,0.0,3.1,31,0.00,,---,0.00,VWS V14.01,2013-08-17 16:24:00,
2013-08-17 12:30:00,77.5,44.5,28.26,ESE,114,0.0,2.7,31,0.00,,---,0.00,VWS V14.01,2013-08-17 16:30:00,
2013-08-17 13:04:00,79.5,45.4,28.29,SSW,192,0.0,3.1,30,0.00,,---,0.00,VWS V14.01,2013-08-17 17:04:00,
2013-08-17 13:10:00,79.9,45.7,28.29,East,99,0.0,0.0,30,0.00,,---,0.00,VWS V14.01,2013-08-17 17:10:00,
2013-08-17 13:16:00,79.3,45.2,28.29,SW,228,0.0,0.0,30,0.00,,---,0.00,VWS V14.01,2013-08-17 17:16:00,
2013-08-17 13:22:00,79.3,45.2,28.29,ESE,112,0.0,2.7,30,0.00,,---,0.00,VWS V14.01,2013-08-17 17:22:00,
2013-08-17 13:27:00,79.5,45.4,28.29,SE,129,0.0,0.0,30,0.00,,---,0.00,VWS V14.01,2013-08-17 17:27:00,
2013-08-17 13:32:00,79.0,44.9,28.29,SE,129,0.0,0.0,30,0.00,,---,0.00,VWS V14.01,2013-08-17 17:32:00,
2013-08-17 13:56:00,78.6,45.5,28.26,SSE,159,0.0,0.0,31,0.00,,---,0.00,VWS V14.01,2013-08-17 17:56:00,
2013-08-17 14:01:00,78.4,45.3,28.26,ESE,116,0.0,0.0,31,0.00,,---,0.00,VWS V14.01,2013-08-17 18:01:00,
2013-08-17 14:06:00,78.4,45.3,28.26,ESE,109,0.0,0.0,31,0.00,,---,0.00,VWS V14.01,2013-08-17 18:06:00,
2013-08-17 14:11:00,78.8,44.8,28.26,ESE,102,0.0,2.7,30,0.00,,---,0.00,VWS V14.01,2013-08-17 18:11:00,
2013-08-17 14:17:00,78.4,45.3,28.26,East,85,0.0,2.2,31,0.00,,---,0.00,VWS V14.01,2013-08-17 18:17:00,
2013-08-17 14:22:00,78.4,45.3,28.26,East,95,0.0,0.0,31,0.00,,---,0.00,VWS V14.01,2013-08-17 18:22:00,
2013-08-17 14:28:00,79.3,45.2,28.26,East,95,0.0,0.0,30,0.00,,---,0.00,VWS V14.01,2013-08-17 18:28:00,
2013-08-17 14:33:00,79.9,45.7,28.26,East,101,0.0,0.0,30,0.00,,---,0.00,VWS V14.01,2013-08-17 18:33:00,
2013-08-17 15:04:00,80.4,46.2,28.26,East,90,0.0,3.1,30,0.00,,---,0.00,VWS V14.01,2013-08-17 19:04:00,
2013-08-17 15:10:00,79.7,45.6,28.26,East,90,0.0,2.2,30,0.00,,---,0.00,VWS V14.01,2013-08-17 19:10:00,
2013-08-17 15:15:00,79.0,44.9,28.26,East,90,0.0,0.0,30,0.00,,---,0.00,VWS V14.01,2013-08-17 19:15:00,
2013-08-17 15:21:00,78.6,45.5,28.26,East,95,0.0,0.0,31,0.00,,---,0.00,VWS V14.01,2013-08-17 19:21:00,
2013-08-17 15:26:00,78.6,45.5,28.26,East,100,2.7,2.7,31,0.00,,---,0.00,VWS V14.01,2013-08-17 19:26:00,
2013-08-17 15:32:00,78.6,45.5,28.26,East,92,0.0,2.7,31,0.00,,---,0.00,VWS V14.01,2013-08-17 19:32:00,
2013-08-17 15:55:00,80.8,46.5,28.26,ESE,103,4.5,4.5,30,0.00,,---,0.00,VWS V14.01,2013-08-17 19:55:00,
2013-08-17 16:01:00,80.4,46.2,28.26,SE,135,2.7,4.0,30,0.00,,---,0.00,VWS V14.01,2013-08-17 20:01:00,
2013-08-17 16:07:00,81.3,47.0,28.26,East,86,3.1,3.1,30,0.00,,---,0.00,VWS V14.01,2013-08-17 20:07:00,
2013-08-17 16:13:00,81.9,47.4,28.26,East,89,0.0,2.2,30,0.00,,---,0.00,VWS V14.01,2013-08-17 20:13:00,
2013-08-17 16:18:00,83.5,47.9,28.26,East,89,0.0,0.0,29,0.00,,---,0.00,VWS V14.01,2013-08-17 20:18:00,
2013-08-17 16:23:00,84.4,48.7,28.26,East,92,0.0,0.0,29,0.00,,---,0.00,VWS V14.01,2013-08-17 20:23:00,
2013-08-17 16:29:00,84.9,49.2,28.23,East,92,0.0,0.0,29,0.00,,---,0.00,VWS V14.01,2013-08-17 20:29:00,
2013-08-17 17:04:00,82.2,47.7,28.23,East,92,0.0,0.0,30,0.00,,---,0.00,VWS V14.01,2013-08-17 21:04:00,
2013-08-17 17:10:00,81.5,47.1,28.23,East,92,0.0,0.0,30,0.00,,---,0.00,VWS V14.01,2013-08-17 21:10:00,
2013-08-17 17:16:00,82.6,47.1,28.23,East,92,0.0,0.0,29,0.00,,---,0.00,VWS V14.01,2013-08-17 21:16:00,
2013-08-17 17:21:00,83.1,47.6,28.23,East,92,2.7,2.7,29,0.00,,---,0.00,VWS V14.01,2013-08-17 21:21:00,
2013-08-17 17:27:00,82.9,47.5,28.23,East,92,0.0,0.0,29,0.00,,---,0.00,VWS V14.01,2013-08-17 21:27:00,
2013-08-17 17:32:00,82.6,47.1,28.23,East,99,0.0,0.0,29,0.00,,---,0.00,VWS V14.01,2013-08-17 21:32:00,
2013-08-17 17:55:00,79.9,45.7,28.23,ESE,103,0.0,2.2,30,0.00,,---,0.00,VWS V14.01,2013-08-17 21:55:00,
2013-08-17 18:01:00,78.8,44.8,28.23,ESE,103,0.0,0.0,30,0.00,,---,0.00,VWS V14.01,2013-08-17 22:01:00,
2013-08-17 18:06:00,77.9,44.9,28.23,ESE,103,0.0,0.0,31,0.00,,---,0.00,VWS V14.01,2013-08-17 22:06:00,
2013-08-17 18:12:00,77.5,44.5,28.23,ESE,103,0.0,0.0,31,0.00,,---,0.00,VWS V14.01,2013-08-17 22:12:00,
2013-08-17 18:17:00,77.4,44.4,28.23,ESE,103,0.0,0.0,31,0.00,,---,0.00,VWS V14.01,2013-08-17 22:17:00,
2013-08-17 18:23:00,77.7,44.7,28.23,ESE,103,0.0,0.0,31,0.00,,---,0.00,VWS V14.01,2013-08-17 22:23:00,
2013-08-17 18:28:00,78.6,45.5,28.26,ESE,103,0.0,0.0,31,0.00,,---,0.00,VWS V14.01,2013-08-17 22:28:00,
2013-08-17 19:04:00,74.5,41.9,28.26,ESE,103,0.0,0.0,31,0.00,,---,0.00,VWS V14.01,2013-08-17 23:04:00,
2013-08-17 19:10:00,73.8,41.3,28.26,ESE,103,0.0,0.0,31,0.00,,---,0.00,VWS V14.01,2013-08-17 23:10:00,
2013-08-17 19:15:00,73.0,41.5,28.23,ESE,103,0.0,0.0,32,0.00,,---,0.00,VWS V14.01,2013-08-17 23:15:00,
2013-08-17 19:21:00,72.5,41.0,28.23,ESE,103,0.0,0.0,32,0.00,,---,0.00,VWS V14.01,2013-08-17 23:21:00,
2013-08-17 19:27:00,72.0,40.5,28.26,ESE,103,0.0,0.0,32,0.00,,---,0.00,VWS V14.01,2013-08-17 23:27:00,
2013-08-17 19:33:00,71.4,40.0,28.26,ESE,103,0.0,0.0,32,0.00,,---,0.00,VWS V14.01,2013-08-17 23:33:00,
2013-08-17 19:55:00,69.8,38.6,28.26,ESE,103,0.0,0.0,32,0.00,,---,0.00,VWS V14.01,2013-08-17 23:55:00,
2013-08-17 20:01:00,69.6,39.3,28.26,ESE,103,0.0,0.0,33,0.00,,---,0.00,VWS V14.01,2013-08-18 00:01:00,
2013-08-17 20:06:00,69.4,39.1,28.26,ESE,103,0.0,0.0,33,0.00,,---,0.00,VWS V14.01,2013-08-18 00:06:00,
2013-08-17 20:11:00,69.1,38.8,28.23,ESE,103,0.0,0.0,33,0.00,,---,0.00,VWS V14.01,2013-08-18 00:11:00,
2013-08-17 20:16:00,68.7,38.5,28.23,ESE,103,0.0,0.0,33,0.00,,---,0.00,VWS V14.01,2013-08-18 00:16:00,
2013-08-17 20:22:00,68.4,38.2,28.23,ESE,103,0.0,0.0,33,0.00,,---,0.00,VWS V14.01,2013-08-18 00:22:00,
2013-08-17 20:27:00,68.2,38.0,28.26,ESE,103,0.0,0.0,33,0.00,,---,0.00,VWS V14.01,2013-08-18 00:27:00,
2013-08-17 21:04:00,67.6,37.5,28.26,ESE,103,0.0,0.0,33,0.00,,---,0.00,VWS V14.01,2013-08-18 01:04:00,
2013-08-17 21:09:00,67.8,37.7,28.26,ESE,103,0.0,0.0,33,0.00,,---,0.00,VWS V14.01,2013-08-18 01:09:00,
2013-08-17 21:14:00,67.8,37.7,28.26,ESE,103,0.0,0.0,33,0.00,,---,0.00,VWS V14.01,2013-08-18 01:14:00,
2013-08-17 21:19:00,67.8,37.7,28.26,ESE,103,0.0,0.0,33,0.00,,---,0.00,VWS V14.01,2013-08-18 01:19:00,
2013-08-17 21:25:00,67.6,37.5,28.26,ESE,103,0.0,0.0,33,0.00,,---,0.00,VWS V14.01,2013-08-18 01:25:00,
2013-08-17 21:31:00,67.3,37.2,28.26,ESE,103,0.0,0.0,33,0.00,,---,0.00,VWS V14.01,2013-08-18 01:31:00,
2013-08-17 22:12:00,65.7,35.8,28.26,ESE,103,0.0,0.0,33,0.00,,---,0.00,VWS V14.01,2013-08-18 02:12:00,
2013-08-17 22:18:00,65.7,36.6,28.26,ESE,103,0.0,0.0,34,0.00,,---,0.00,VWS V14.01,2013-08-18 02:18:00,
2013-08-17 22:24:00,65.7,36.6,28.26,ESE,103,0.0,0.0,34,0.00,,---,0.00,VWS V14.01,2013-08-18 02:24:00,
2013-08-17 22:29:00,65.5,36.4,28.26,ESE,103,0.0,0.0,34,0.00,,---,0.00,VWS V14.01,2013-08-18 02:29:00,
2013-08-17 23:04:00,64.6,35.6,28.26,ESE,103,0.0,0.0,34,0.00,,---,0.00,VWS V14.01,2013-08-18 03:04:00,
2013-08-17 23:09:00,64.6,35.6,28.26,ESE,103,0.0,0.0,34,0.00,,---,0.00,VWS V14.01,2013-08-18 03:09:00,
2013-08-17 23:14:00,64.6,35.6,28.26,ESE,103,0.0,0.0,34,0.00,,---,0.00,VWS V14.01,2013-08-18 03:14:00,
2013-08-17 23:20:00,64.9,35.9,28.26,ESE,103,0.0,0.0,34,0.00,,---,0.00,VWS V14.01,2013-08-18 03:20:00,
2013-08-17 23:26:00,64.9,35.9,28.26,ESE,103,0.0,0.0,34,0.00,,---,0.00,VWS V14.01,2013-08-18 03:26:00,
2013-08-17 23:31:00,64.9,35.9,28.26,ESE,103,0.0,0.0,34,0.00,,---,0.00,VWS V14.01,2013-08-18 03:31:00,
2013-08-17 23:55:00,64.9,35.9,28.26,ESE,103,0.0,0.0,34,0.00,,---,0.00,VWS V14.01,2013-08-18 03:55:00,